| time (UTC) | temp C | wind direction | speed KPH | gust KPH | rain 1hr cm | rain 24hr cm | rain mn cm | humidity % | barometer mb |
| 20260506201501 | 15 | 284 | 4.8 | 11.3 | 0.00 | 0.38 | 0.38 | 35 | 1006.3 |
| 20260506200002 | 15 | 285 | 3.2 | 9.7 | 0.00 | 0.38 | 0.38 | 35 | 1006.6 |
| 20260506194500 | 15 | 338 | 4.8 | 12.9 | 0.00 | 0.38 | 0.38 | 37 | 1006.8 |
| 20260506193000 | 15 | 359 | 4.8 | 9.7 | 0.03 | 0.38 | 0.38 | 38 | 1006.9 |
| 20260506191500 | 15 | 301 | 6.4 | 14.5 | 0.05 | 0.38 | 0.38 | 40 | 1007.1 |
| 20260506185959 | 15 | 225 | 6.4 | 14.5 | 0.05 | 0.38 | 0.38 | 43 | 1007.2 |
| 20260506184500 | 15 | 293 | 6.4 | 16.1 | 0.05 | 0.38 | 0.38 | 47 | 1007.3 |
| 20260506183000 | 15 | 333 | 4.8 | 16.1 | 0.05 | 0.36 | 0.36 | 50 | 1007.3 |
| 20260506180000 | 15 | 321 | 6.4 | 16.1 | 0.05 | 0.33 | 0.33 | 55 | 1007.4 |
| 20260506174500 | 15 | 7 | 6.4 | 19.3 | 0.08 | 0.33 | 0.33 | 56 | 1007.5 |
| 20260506173001 | 15 | 259 | 4.8 | 11.3 | 0.08 | 0.30 | 0.30 | 56 | 1007.6 |
| 20260506171500 | 15 | 301 | 6.4 | 17.7 | 0.08 | 0.28 | 0.28 | 56 | 1007.8 |
| 20260506170000 | 15 | 351 | 3.2 | 12.9 | 0.13 | 0.28 | 0.28 | 58 | 1007.9 |
| 20260506162959 | 15 | 96 | 3.2 | 8.0 | 0.15 | 0.23 | 0.23 | 66 | 1007.5 |
| 20260506161500 | 15 | 111 | 3.2 | 9.7 | 0.15 | 0.20 | 0.20 | 67 | 1008.2 |
| 20260506160000 | 15 | 252 | 3.2 | 9.7 | 0.10 | 0.15 | 0.15 | 73 | 1008.9 |
| 20260506154459 | 15 | 193 | 4.8 | 11.3 | 0.13 | 0.13 | 0.13 | 77 | 1009.0 |
| 20260506151500 | 16 | 340 | 3.2 | 14.5 | 0.05 | 0.05 | 0.05 | 83 | 1008.8 |
| 20260506150001 | 16 | 359 | 3.2 | 6.4 | 0.05 | 0.05 | 0.05 | 85 | 1008.9 |
| 20260506144500 | 16 | 64 | 4.8 | 12.9 | 0.00 | 0.00 | 0.00 | 84 | 1008.9 |
| 20260506143000 | 17 | 269 | 6.4 | 14.5 | 0.00 | 0.00 | 0.00 | 81 | 1009.1 |
| 20260506141501 | 17 | 304 | 8.0 | 17.7 | 0.00 | 0.00 | 0.00 | 79 | 1008.8 |
| 20260506140001 | 17 | 330 | 4.8 | 14.5 | 0.00 | 0.00 | 0.00 | 81 | 1008.8 |
| 20260506134500 | 17 | 300 | 4.8 | 16.1 | 0.00 | 0.00 | 0.00 | 80 | 1008.9 |
| 20260506132959 | 17 | 313 | 4.8 | 16.1 | 0.00 | 0.00 | 0.00 | 80 | 1008.9 |
| 20260506131501 | 17 | 319 | 6.4 | 16.1 | 0.00 | 0.00 | 0.00 | 80 | 1009.1 |
| 20260506130001 | 17 | 323 | 4.8 | 16.1 | 0.00 | 0.00 | 0.00 | 80 | 1009.2 |
| 20260506124500 | 17 | 316 | 4.8 | 16.1 | 0.00 | 0.00 | 0.00 | 81 | 1009.2 |
| 20260506122959 | 17 | 309 | 3.2 | 9.7 | 0.00 | 0.00 | 0.00 | 81 | 1008.8 |
| 20260506115958 | 16 | 97 | 3.2 | 8.0 | 0.00 | 0.00 | 0.00 | 82 | 1009.0 |
| 20260506114459 | 16 | 110 | 3.2 | 12.9 | 0.00 | 0.00 | 0.00 | 82 | 1008.9 |
| 20260506112959 | 16 | 127 | 3.2 | 12.9 | 0.00 | 0.00 | 0.00 | 82 | 1009.0 |
| 20260506111459 | 16 | 158 | 4.8 | 9.7 | 0.00 | 0.00 | 0.00 | 82 | 1009.0 |
| 20260506104458 | 16 | 110 | 3.2 | 11.3 | 0.00 | 0.00 | 0.00 | 82 | 1008.6 |
| 20260506102958 | 16 | 216 | 4.8 | 17.7 | 0.00 | 0.00 | 0.00 | 83 | 1008.6 |
| 20260506101458 | 16 | 314 | 3.2 | 9.7 | 0.00 | 0.00 | 0.00 | 83 | 1008.5 |
| 20260506095958 | 16 | 102 | 3.2 | 8.0 | 0.00 | 0.18 | 0.00 | 83 | 1008.6 |
| 20260506094459 | 16 | 110 | 3.2 | 9.7 | 0.00 | 0.18 | 0.00 | 83 | 1008.6 |
| 20260506092959 | 16 | 128 | 4.8 | 12.9 | 0.00 | 0.18 | 0.00 | 83 | 1008.6 |
| 20260506091458 | 16 | 110 | 3.2 | 9.7 | 0.00 | 0.18 | 0.00 | 82 | 1008.6 |
| 20260506084500 | 16 | 91 | 4.8 | 11.3 | 0.00 | 0.18 | 0.00 | 81 | 1008.8 |
| 20260506083000 | 16 | 110 | 6.4 | 9.7 | 0.00 | 0.18 | 0.00 | 81 | 1008.7 |
| 20260506081459 | 17 | 94 | 4.8 | 8.0 | 0.00 | 0.18 | 0.00 | 80 | 1008.8 |
| 20260506071459 | 17 | 88 | 3.2 | 6.4 | 0.00 | 0.18 | 0.00 | 74 | 1009.0 |
| 20260506061459 | 17 | 60 | 1.6 | 9.7 | 0.00 | 0.18 | 0.00 | 71 | 1009.5 |
| 20260506044457 | 18 | 257 | 3.2 | 9.7 | 0.00 | 0.18 | 0.00 | 68 | 1009.9 |
| 20260506042957 | 18 | 358 | 3.2 | 12.9 | 0.00 | 0.18 | 0.00 | 67 | 1010.0 |
| 20260506041457 | 18 | 355 | 3.2 | 11.3 | 0.00 | 0.18 | 0.00 | 67 | 1009.9 |
| 20260506034459 | 18 | 18 | 3.2 | 9.7 | 0.00 | 0.18 | 0.18 | 65 | 1010.0 |
| 20260506032958 | 19 | 82 | 3.2 | 16.1 | 0.00 | 0.18 | 0.18 | 64 | 1009.9 |
| 20260506024459 | 20 | 360 | 3.2 | 8.0 | 0.00 | 0.18 | 0.18 | 56 | 1009.8 |
| 20260506022959 | 21 | 337 | 4.8 | 12.9 | 0.00 | 0.18 | 0.18 | 53 | 1009.8 |
| 20260506021458 | 21 | 359 | 3.2 | 11.3 | 0.00 | 0.18 | 0.18 | 53 | 1009.6 |
| 20260506020001 | 21 | 23 | 4.8 | 16.1 | 0.00 | 0.18 | 0.18 | 51 | 1009.6 |
| 20260506012959 | 21 | 94 | 6.4 | 27.4 | 0.00 | 0.18 | 0.18 | 51 | 1009.3 |
| 20260506011458 | 22 | 12 | 4.8 | 14.5 | 0.00 | 0.18 | 0.18 | 51 | 1009.2 |
| 20260506005957 | 22 | 340 | 4.8 | 20.9 | 0.00 | 0.18 | 0.18 | 51 | 1009.0 |
| 20260506001457 | 22 | 7 | 3.2 | 11.3 | 0.00 | 0.18 | 0.18 | 46 | 1008.5 |
| 20260505235958 | 23 | 351 | 4.8 | 16.1 | 0.00 | 0.18 | 0.18 | 44 | 1008.5 |
| 20260505232958 | 23 | 41 | 6.4 | 16.1 | 0.00 | 0.18 | 0.18 | 42 | 1008.4 |
| 20260505231458 | 24 | 354 | 8.0 | 17.7 | 0.00 | 0.18 | 0.18 | 40 | 1008.1 |
| 20260505225958 | 25 | 316 | 8.0 | 19.3 | 0.00 | 0.18 | 0.18 | 39 | 1008.1 |
| 20260505224458 | 25 | 309 | 11.3 | 30.6 | 0.00 | 0.18 | 0.18 | 38 | 1007.9 |
| 20260505222957 | 25 | 299 | 9.7 | 24.1 | 0.00 | 0.18 | 0.18 | 38 | 1007.9 |
| 20260505221458 | 25 | 296 | 11.3 | 33.8 | 0.00 | 0.18 | 0.18 | 38 | 1007.9 |
| 20260505214459 | 25 | 347 | 8.0 | 25.7 | 0.00 | 0.18 | 0.18 | 38 | 1008.0 |
| 20260505212959 | 25 | 257 | 11.3 | 35.4 | 0.00 | 0.18 | 0.18 | 38 | 1008.0 |
| 20260505205957 | 25 | 295 | 11.3 | 27.4 | 0.00 | 0.18 | 0.18 | 37 | 1007.6 |
| 20260505204458 | 26 | 279 | 11.3 | 25.7 | 0.00 | 0.18 | 0.18 | 37 | 1007.7 |
| 20260505202957 | 25 | 271 | 12.9 | 32.2 | 0.00 | 0.18 | 0.18 | 35 | 1007.8 |